Weather History for St. Cloud, MN

Change the Weather History Date:

Saturday, June 14, 2014

  Actual Average Record
Temperature  
Mean Temperature 63 °F 65 °F  
Max Temperature 68 °F 77 °F 95 °F (1979)
Min Temperature 57 °F 53 °F 36 °F (1942)
Degree Days  
Heating Degree Days 2 3  
Month to date heating degree days 22 54  
Since 1 June heating degree days 22 54  
Since 1 July heating degree days 9520 8508  
Cooling Degree Days 0 3  
Month to date cooling degree days 26 29  
Year to date cooling degree days 70 54  
Since 1 June cooling degree days 26 29  
Growing Degree Days 12 (Base 50)    
Moisture  
Dew Point 55 °F    
Average Humidity 75    
Maximum Humidity 90    
Minimum Humidity 60    
Precipitation  
Precipitation 2.00 in 0.15 in 2.48 in (1938)
Month to date precipitation 3.52 1.88  
Year to date precipitation 19.87 10.19  
Snow  
Snow 0.00 in 0.00 in 0.00 in ()
Month to date snowfall 0.0 0.0  
Since 1 June snowfall 0.0 0.0  
Since 1 July snowfall 75.5 45.7  
Snow Depth 0.00 in    
Sea Level Pressure  
Sea Level Pressure 29.79 in    
Wind  
Wind Speed 10 mph (ESE)    
Max Wind Speed 23 mph    
Max Gust Speed 33 mph    
Visibility 7 miles    
Events Rain , Thunderstorm    
T = Trace of Precipitation, MM = Missing Value Source: NWS Daily Summary

Daily Weather History Graph

Daily Weather History Graph

Search for Another Location

Airport:

Trip Planner

Search our weather history database for the weather conditions in past years. The results will help you decide how hot, cold, wet, or windy it might be!

Date:

Astronomy

Jun. 14, 2014 Rise Set
Actual Time 5:26 AM CDT 9:06 PM CDT
Civil Twilight 4:48 AM CDT 9:44 PM CDT
Nautical Twilight 3:58 AM CDT 10:35 PM CDT
Astronomical Twilight 2:49 AM CDT 11:44 PM CDT
Moon 10:23 PM CDT (6/14) 7:16 AM CDT (6/14)
Length of Visible Light 16h 55m
Length of Day
15h 39m
Waning Gibbous, 97% of the Moon is Illuminated
Jun 14
Waning Gibbous
Jun 19
Last Quarter
Jun 27
New
Jul 5
First Quarter
Jul 12
Full

Hourly Weather History & Observations

Time (CDT) Temp. Dew Point Humidity Pressure Visibility Wind Dir Wind Speed Gust Speed Precip Events Conditions
12:53 AM 64.0 °F 50.0 °F 60% 29.93 in 10.0 mi ESE 4.6 mph - 0.00 in   Overcast
1:53 AM 61.0 °F 52.0 °F 72% 29.92 in 10.0 mi ESE 5.8 mph - 0.01 in   Mostly Cloudy
2:53 AM 61.0 °F 50.0 °F 67% 29.91 in 10.0 mi SE 6.9 mph - N/A   Partly Cloudy
3:53 AM 63.0 °F 48.9 °F 60% 29.90 in 10.0 mi ESE 6.9 mph - N/A   Mostly Cloudy
4:53 AM 61.0 °F 51.1 °F 70% 29.91 in 10.0 mi East 3.5 mph - N/A   Overcast
5:53 AM 62.1 °F 50.0 °F 65% 29.88 in 10.0 mi ESE 6.9 mph - 0.00 in   Overcast
6:53 AM 62.1 °F 48.9 °F 62% 29.90 in 10.0 mi ESE 5.8 mph - N/A   Overcast
7:53 AM 59.0 °F 53.1 °F 81% 29.91 in 4.0 mi SE 13.8 mph 18.4 mph 0.03 in Rain Rain
8:53 AM 57.9 °F 53.1 °F 84% 29.87 in 3.0 mi SE 12.7 mph 19.6 mph 0.19 in Rain Rain
9:15 AM 57.2 °F 53.6 °F 88% 29.84 in 2.5 mi ESE 9.2 mph 18.4 mph 0.11 in Rain Rain
9:25 AM 57.2 °F 53.6 °F 88% 29.85 in 4.0 mi East 6.9 mph - 0.15 in Rain Rain
9:53 AM 57.9 °F 53.1 °F 84% 29.85 in 9.0 mi ESE 9.2 mph - 0.22 in Rain Light Rain
10:53 AM 61.0 °F 54.0 °F 78% 29.85 in 10.0 mi SE 9.2 mph - 0.00 in   Overcast
11:53 AM 62.1 °F 54.0 °F 75% 29.81 in 10.0 mi ESE 6.9 mph - N/A   Mostly Cloudy
12:53 PM 64.9 °F 55.0 °F 70% 29.78 in 10.0 mi ESE 5.8 mph - N/A   Scattered Clouds
1:53 PM 64.9 °F 55.0 °F 70% 29.78 in 10.0 mi ESE 8.1 mph 18.4 mph N/A   Scattered Clouds
2:53 PM 66.9 °F 55.0 °F 66% 29.76 in 10.0 mi SE 9.2 mph - N/A   Clear
3:53 PM 68.0 °F 55.9 °F 65% 29.78 in 10.0 mi SSE 12.7 mph 19.6 mph N/A   Overcast
4:19 PM 68.0 °F 57.2 °F 68% 29.77 in 10.0 mi SE 12.7 mph - N/A   Overcast
4:53 PM 68.0 °F 55.9 °F 65% 29.77 in 10.0 mi SE 13.8 mph 25.3 mph N/A   Overcast
5:25 PM 66.2 °F 55.4 °F 68% 29.73 in 10.0 mi SE 15.0 mph 26.5 mph N/A   Overcast
5:53 PM 66.0 °F 55.9 °F 70% 29.75 in 10.0 mi SE 11.5 mph 17.3 mph N/A   Overcast
6:07 PM 66.2 °F 55.4 °F 68% 29.72 in 10.0 mi SE 12.7 mph 18.4 mph N/A   Overcast
6:53 PM 66.0 °F 55.9 °F 70% 29.72 in 10.0 mi SE 6.9 mph - N/A   Mostly Cloudy
7:17 PM 66.2 °F 55.4 °F 68% 29.70 in 10.0 mi ESE 8.1 mph - N/A Thunderstorm Thunderstorm
7:53 PM 63.0 °F 57.0 °F 81% 29.73 in 6.0 mi ESE 10.4 mph 18.4 mph N/A Rain , Thunderstorm Light Thunderstorms and Rain
8:46 PM 60.8 °F 57.2 °F 88% 29.76 in 2.0 mi Calm Calm - 0.20 in Rain , Thunderstorm Light Thunderstorms and Rain
8:53 PM 61.0 °F 57.0 °F 87% 29.78 in 1.8 mi NNE 5.8 mph - 0.27 in Rain , Thunderstorm Light Thunderstorms and Rain
9:00 PM 60.8 °F 57.2 °F 88% 29.76 in 2.0 mi North 6.9 mph - N/A Rain , Thunderstorm Light Thunderstorms and Rain
9:16 PM 60.8 °F 57.2 °F 88% 29.77 in 1.2 mi NE 6.9 mph - N/A Rain , Thunderstorm Heavy Thunderstorms and Rain
9:32 PM 60.8 °F 57.2 °F 88% 29.77 in 1.8 mi NE 8.1 mph - N/A Rain Heavy Rain
9:37 PM 60.8 °F 57.2 °F 88% 29.77 in 2.5 mi East 6.9 mph - N/A Rain Rain
9:47 PM 60.8 °F 57.2 °F 88% 29.76 in 1.8 mi East 8.1 mph - 0.71 in Rain , Thunderstorm Thunderstorms and Rain
9:53 PM 60.1 °F 57.0 °F 90% 29.78 in 1.2 mi ESE 10.4 mph - N/A Rain , Thunderstorm Thunderstorms and Rain
10:01 PM 60.8 °F 57.2 °F 88% 29.75 in 2.0 mi ESE 13.8 mph 21.9 mph 0.12 in Rain , Thunderstorm Thunderstorms and Rain
10:05 PM 60.8 °F 57.2 °F 88% 29.75 in 4.0 mi SE 13.8 mph 21.9 mph 0.12 in Rain , Thunderstorm Thunderstorms and Rain
10:17 PM 60.8 °F 57.2 °F 88% 29.75 in 5.0 mi ESE 15.0 mph 21.9 mph 0.16 in Rain , Thunderstorm Thunderstorms and Rain
10:31 PM 60.8 °F 57.2 °F 88% 29.75 in 6.0 mi SE 17.3 mph 23.0 mph 0.18 in Rain , Thunderstorm Light Thunderstorms and Rain
10:53 PM 60.1 °F 55.0 °F 83% 29.75 in 2.5 mi ESE 20.7 mph 29.9 mph 0.31 in Rain Light Rain
11:00 PM 60.8 °F 55.4 °F 82% 29.74 in 6.0 mi ESE 17.3 mph 29.9 mph 0.01 in Rain Light Rain
11:20 PM 60.8 °F 55.4 °F 82% 29.73 in 8.0 mi ESE 17.3 mph 27.6 mph 0.04 in Rain , Thunderstorm Light Thunderstorms and Rain
11:40 PM 60.8 °F 55.4 °F 82% 29.71 in 7.0 mi ESE 21.9 mph 33.4 mph 0.07 in Rain Light Rain
11:53 PM 61.0 °F 55.0 °F 81% 29.74 in 10.0 mi ESE 17.3 mph 28.8 mph 0.09 in Rain Light Rain